Orbital Elements at Epoch 2459200.5 (2020-Dec-17.0) TDB
Reference: JPL 22 (heliocentric ecliptic J2000)
Element | Value | Uncertainty (1-sigma) | Units |
e | .2136856849415443 | 3.9311e-08 | |
a | 2.408885350055857 | 1.047e-08 | au |
q | 1.894141034083519 | 9.2658e-08 | au |
i | 1.625438773608415 | 3.4252e-06 | deg |
node | 257.4454087156068 | 0.00015676 | deg |
peri | 51.50785465994839 | 0.00015702 | deg |
M | 269.4961957264844 | 1.196e-05 | deg |
tp | 2459543.810397465780 (2021-Nov-25.31039747) | 4.6851e-05 | TDB |
period | 1365.597215274715 3.74 | 8.9033e-06 2.438e-08 | d yr |
n | .2636209242178187 | 1.7187e-09 | deg/d |
Q | 2.923629666028194 | 1.2707e-08 | au |
|
| | Orbit Determination Parameters
Additional Information
|